Weather Roundup
Issued by NWS

Home | Current Version | Previous Version | Text Only | Print | Product List | Glossary On
Versions: 1 2 3 4 5 6 7 8 9 10 11 12 13 14 15 16 17 18 19 20 21 22 23 24 25 26 27 28 29 30 31 32 33 34 35 36 37 38 39 40 41 42 43 44 45 46 47 48 49 50
000
NZUS93 KARX 242059
HRRWXR

CURRENT HOURLY OBSERVATIONS ACROSS
MUCH OF THE UPPER MISSISSIPPI VALLEY
NATIONAL WEATHER SERVICE LA CROSSE WI
300 PM CST SAT JAN 24 2015


...SOUTHEAST MINNESOTA...


CITY           SKY/WX    TMP DP  RH WIND       PRES   REMARKS
ROCHESTER      MOSUNNY   35  31  85 SW5       29.59F WCI  31
ROCHESTER/MAYO FAIR      39  31  73 SW5       29.59F
WINONA         SUNNY     41  32  70 W5        29.62S
AUSTIN         MOSUNNY   39  34  81 CALM      29.59F
ALBERT LEA     PTSUNNY   39  36  87 SW6       29.58F WCI  35
DODGE CENTER   PTSUNNY   36  34  93 S3        29.57F
PRESTON        MOSUNNY   36  31  83 W5        29.61F WCI  32
OWATONNA       PTSUNNY   37  34  87 CALM      29.58F
FARIBAULT      CLOUDY    39  34  81 S6        29.58F WCI  35
$$

...ELSEWHERE IN MINNESOTA...


CITY           SKY/WX    TMP DP  RH WIND       PRES   REMARKS
MINNEAPOLIS    CLOUDY    41  31  67 S3        29.58F
INTNL FALLS    SUNNY     23   9  55 N12       29.66S WCI  12
DULUTH         CLOUDY    36  28  73 N6        29.57F WCI  31
RED WING       PTSUNNY   43  30  61 CALM      29.59F
REDWOOD FALLS  CLOUDY    38  33  82 W9        29.58F WCI  31
MANKATO        CLOUDY    41  34  75 W8        29.58F
WORTHINGTON    CLOUDY    37  30  75 W12       29.61S WCI  30
FAIRMONT       CLOUDY    39  32  75 W8        29.60S WCI  34
$$

...SOUTHWEST WISCONSIN...


CITY           SKY/WX    TMP DP  RH WIND       PRES   REMARKS
LA CROSSE      SUNNY     44  31  60 N3        29.61F
PRAIRIE DU CHI   N/A     45  33  62 W9        29.62F
BOSCOBEL       MOSUNNY   45  32  60 SW6       29.62F
LONE ROCK      NOT AVBL
PLATTEVILLE    MOSUNNY   40  34  78 S6        29.62F
FORT MC COY    MOSUNNY   38  30  74 SW3       29.62F
VIROQUA        FAIR      39  32  75 W7        29.59F WCI  34
WIS DELLS      NOT AVBL
$$

...ELSEWHERE IN WISCONSIN...


CITY           SKY/WX    TMP DP  RH WIND       PRES   REMARKS
MILWAUKEE      CLOUDY    39  30  70 W8        29.61R WCI  33
MADISON        CLOUDY    34  29  82 W6        29.62S WCI  29
GREEN BAY      CLOUDY    37  32  82 MISG      29.57F
EAU CLAIRE     NOT AVBL
BLACK RVR FLS  CLOUDY    38  30  72 CALM      29.61S
MEDFORD        CLOUDY    35  30  82 W6        29.56S WCI  30
WAUSAU         CLOUDY    36  30  79 W10       29.55S WCI  28
WIS RAPIDS     CLOUDY    35  30  82 W7        29.61S WCI  29
MARSHFIELD     CLOUDY    36  30  79 SW7       29.57F WCI  30
RICE LAKE      CLOUDY    38  30  74 CALM      29.59F
$$

...NORTHEAST IOWA...


CITY           SKY/WX    TMP DP  RH WIND       PRES   REMARKS
DECORAH        SUNNY     41  36  81 W7        29.61F
MASON CITY     PTSUNNY   41  35  79 SW9       29.61F
CHARLES CITY   SUNNY     45  37  76 W10       29.62F
OELWEIN        NOT AVBL
$$

...ELSEWHERE IN IOWA...


CITY           SKY/WX    TMP DP  RH WIND       PRES   REMARKS
DES MOINES     CLOUDY    52  31  44 W9        29.66F
IOWA CITY      SUNNY     49  34  56 W9        29.67F
FORT DODGE     PTSUNNY   45  36  70 W8        29.63F
$$

...NORTHERN ILLINOIS...


CITY           SKY/WX    TMP DP  RH WIND       PRES   REMARKS
CHICAGO-OHARE  PTSUNNY   39  31  72 W12       29.62S WCI  32
CHICAGO-MIDWAY PTSUNNY   42  32  67 SW13      29.63F
MOLINE         SUNNY     47  35  63 SW10      29.66F
ROCKFORD       CLOUDY    35  29  78 W9        29.66S WCI  28
PEORIA         SUNNY     49  36  61 W10       29.70F
$$

NOTE: "FAIR" INDICATES FEW OR NO CLOUDS BELOW 12,000 FEET WITH NO
SIGNIFICANT WEATHER AND/OR OBSTRUCTIONS TO VISIBILITY. WIND
SPEEDS ARE IN MILES-PER-HOUR.



USA.gov is the U.S. government's official web portal to all federal, state and local government web resources and services.